Change the Weather History Date:

Wednesday, December 25, 2013

  Actual Average Record
Temperature  
Mean Temperature 21 °F -  
Max Temperature 31 °F 40 °F 65 °F (1987)
Min Temperature 11 °F 22 °F -9 °F (1983)
Degree Days  
Heating Degree Days 44    
Moisture  
Dew Point 3 °F    
Average Humidity 49    
Maximum Humidity 85    
Minimum Humidity 21    
Precipitation  
Precipitation 0.00 in - - ()
Sea Level Pressure  
Sea Level Pressure 30.29 in    
Wind  
Wind Speed 1 mph (SSE)    
Max Wind Speed 8 mph    
Max Gust Speed -    
Visibility 10 miles    
Events      
Averages and records for this station are not official NWS values.
T = Trace of Precipitation, MM = Missing Value Source: NWS Daily Summary

Daily Weather History Graph

Daily Weather History Graph

Search for Another Location

Airport or City:

Trip Planner

Search our weather history database for the weather conditions in past years. The results will help you decide how hot, cold, wet, or windy it might be!

Date:

Astronomy

Dec. 25, 2013 Rise Set
Actual Time 7:35 AM EST 5:16 PM EST
Civil Twilight 7:06 AM EST 5:45 PM EST
Nautical Twilight 6:34 AM EST 6:17 PM EST
Astronomical Twilight 6:03 AM EST 6:48 PM EST
Moon 12:11 AM EST (12/25) 12:11 PM EST (12/25)
Length of Visible Light 10h 38m
Length of Day
9h 40m
Waning Gibbous, 49% of the Moon is Illuminated
Dec 25
Waning Gibbous
Jan 1
New
Jan 7
First Quarter
Jan 15
Full
Jan 24
Last Quarter

Hourly Weather History & Observations

Time (EST) Temp. Windchill Dew Point Humidity Pressure Visibility Wind Dir Wind Speed Gust Speed Precip Events Conditions
12:15 AM 15.8 °F - 6.6 °F 67% 30.30 in 10.0 mi Calm Calm - N/A   Clear
12:35 AM 15.6 °F - 7.2 °F 69% 30.30 in 10.0 mi Calm Calm - N/A   Clear
12:55 AM 15.6 °F - 7.5 °F 70% 30.29 in 10.0 mi Calm Calm - N/A   Clear
1:15 AM 15.8 °F - 7.7 °F 70% 30.29 in 10.0 mi Calm Calm - N/A   Clear
1:35 AM 14.7 °F - 7.7 °F 74% 30.30 in 10.0 mi Calm Calm - N/A   Clear
1:55 AM 14.4 °F - 7.7 °F 75% 30.30 in 10.0 mi Calm Calm - N/A   Clear
2:15 AM 15.1 °F - 7.7 °F 73% 30.30 in 10.0 mi Calm Calm - N/A   Clear
2:35 AM 15.3 °F - 7.7 °F 72% 30.30 in 10.0 mi Calm Calm - N/A   Clear
2:55 AM 14.9 °F - 7.3 °F 72% 30.31 in 10.0 mi Calm Calm - N/A   Clear
3:15 AM 15.4 °F - 7.3 °F 70% 30.32 in 10.0 mi Calm Calm - N/A   Clear
3:35 AM 15.1 °F - 7.2 °F 71% 30.32 in 10.0 mi Calm Calm - N/A   Clear
3:55 AM 14.7 °F - 7.5 °F 73% 30.31 in 10.0 mi Calm Calm - N/A   Clear
4:15 AM 15.8 °F - 6.8 °F 68% 30.30 in 10.0 mi Calm Calm - N/A   Clear
4:35 AM 14.7 °F - 7.0 °F 71% 30.30 in 10.0 mi Calm Calm - N/A   Clear
4:55 AM 14.7 °F - 6.6 °F 70% 30.30 in 10.0 mi Calm Calm - N/A   Clear
5:15 AM 14.4 °F - 6.8 °F 72% 30.30 in 10.0 mi Calm Calm - N/A   Clear
5:35 AM 13.5 °F - 7.0 °F 75% 30.30 in 10.0 mi Calm Calm - N/A   Clear
5:55 AM 13.8 °F - 7.2 °F 75% 30.31 in 10.0 mi Calm Calm - N/A   Clear
6:15 AM 12.4 °F - 6.6 °F 78% 30.30 in 10.0 mi Calm Calm - N/A   Clear
6:35 AM 12.6 °F 3.4 °F 7.7 °F 81% 30.31 in 10.0 mi WSW 5.8 mph - N/A   Clear
6:55 AM 13.5 °F - 7.3 °F 77% 30.31 in 10.0 mi Calm Calm - N/A   Clear
7:15 AM 12.4 °F - 7.5 °F 81% 30.32 in 10.0 mi Calm Calm - N/A   Clear
7:35 AM 11.8 °F 5.7 °F 8.1 °F 85% 30.33 in 10.0 mi SW 3.5 mph - N/A   Clear
7:55 AM 16.2 °F - 2.5 °F 55% 30.34 in 10.0 mi Calm Calm - N/A   Clear
8:15 AM 15.6 °F - 6.6 °F 68% 30.34 in 10.0 mi Calm Calm - N/A   Clear
8:35 AM 18.3 °F - 1.9 °F 49% 30.34 in 10.0 mi Calm Calm - N/A   Clear
8:55 AM 19.0 °F - 2.7 °F 49% 30.34 in 10.0 mi Calm Calm - N/A   Clear
9:20 AM 21.0 °F 16.2 °F 7.2 °F 55% 30.35 in 10.0 mi SSE 3.5 mph - N/A   Clear
9:35 AM 22.8 °F 18.2 °F 4.3 °F 45% 30.35 in 10.0 mi SSE 3.5 mph - N/A   Clear
10:00 AM 24.4 °F 17.5 °F -3.5 °F 30% 30.36 in 10.0 mi SSE 5.8 mph - N/A   Clear
10:15 AM 25.2 °F 17.3 °F -2.9 °F 29% 30.36 in 10.0 mi SSE 6.9 mph - N/A   Clear
10:35 AM 25.9 °F 19.2 °F -2.7 °F 29% 30.36 in 10.0 mi SSE 5.8 mph - N/A   Clear
10:55 AM 27.0 °F 20.5 °F -5.3 °F 25% 30.35 in 10.0 mi SSE 5.8 mph - N/A   Clear
11:15 AM 27.7 °F 20.4 °F -7.1 °F 22% 30.34 in 10.0 mi South 6.9 mph - N/A   Clear
11:35 AM 28.2 °F 24.4 °F -6.0 °F 23% 30.34 in 10.0 mi SSE 3.5 mph - N/A   Clear
11:55 AM 29.1 °F 24.1 °F -6.3 °F 21% 30.33 in 10.0 mi South 4.6 mph - N/A   Clear
12:15 PM 30.6 °F 25.8 °F -3.1 °F 23% 30.31 in 10.0 mi South 4.6 mph - N/A   Clear
12:35 PM 30.7 °F 26.0 °F -3.8 °F 23% 30.30 in 10.0 mi South 4.6 mph - N/A   Clear
12:55 PM 30.4 °F 22.9 °F -3.1 °F 24% 30.29 in 10.0 mi ESE 8.1 mph - N/A   Clear
1:15 PM 30.7 °F 24.9 °F -1.1 °F 26% 30.28 in 10.0 mi SE 5.8 mph - N/A   Clear
1:35 PM 30.6 °F 23.1 °F -1.7 °F 25% 30.28 in 10.0 mi SE 8.1 mph - N/A   Clear
1:55 PM 30.7 °F 24.1 °F -0.6 °F 26% 30.27 in 10.0 mi ESE 6.9 mph - N/A   Clear
2:15 PM 30.9 °F 23.5 °F -0.8 °F 26% 30.27 in 10.0 mi ESE 8.1 mph - N/A   Clear
2:35 PM 31.1 °F 25.4 °F -0.2 °F 26% 30.26 in 10.0 mi ESE 5.8 mph - N/A   Clear
2:55 PM 31.8 °F 27.3 °F 1.4 °F 27% 30.26 in 10.0 mi SE 4.6 mph - N/A   Clear
3:15 PM 31.1 °F 26.4 °F -0.4 °F 26% 30.26 in 10.0 mi SE 4.6 mph - N/A   Clear
3:35 PM 31.3 °F 26.6 °F 0.7 °F 27% 30.26 in 10.0 mi SE 4.6 mph - N/A   Clear
3:55 PM 30.9 °F 26.2 °F -0.0 °F 27% 30.27 in 10.0 mi SE 4.6 mph - N/A   Clear
4:15 PM 30.7 °F - 0.5 °F 28% 30.27 in 10.0 mi Calm Calm - N/A   Clear
4:35 PM 29.5 °F 24.5 °F 1.8 °F 31% 30.27 in 10.0 mi SSE 4.6 mph - N/A   Clear
4:55 PM 28.6 °F 24.8 °F 1.4 °F 31% 30.27 in 10.0 mi SSE 3.5 mph - N/A   Clear
5:15 PM 27.3 °F 22.0 °F 2.5 °F 35% 30.27 in 10.0 mi SSE 4.6 mph - N/A   Clear
5:35 PM 26.1 °F 21.9 °F 3.9 °F 39% 30.27 in 10.0 mi SSE 3.5 mph - N/A   Clear
5:55 PM 25.7 °F 21.5 °F 3.4 °F 38% 30.27 in 10.0 mi SSE 3.5 mph - N/A   Clear
6:15 PM 25.5 °F 21.3 °F 3.9 °F 40% 30.27 in 10.0 mi SSE 3.5 mph - N/A   Clear
6:35 PM 24.4 °F - 5.2 °F 44% 30.27 in 10.0 mi Calm Calm - N/A   Clear
6:55 PM 24.6 °F - 3.7 °F 41% 30.27 in 10.0 mi Calm Calm - N/A   Clear
7:15 PM 24.8 °F - 2.5 °F 38% 30.27 in 10.0 mi Calm Calm - N/A   Clear
7:35 PM 24.6 °F - 2.5 °F 39% 30.27 in 10.0 mi Calm Calm - N/A   Clear
7:55 PM 24.4 °F - 2.1 °F 38% 30.27 in 10.0 mi Calm Calm - N/A   Clear
8:15 PM 24.4 °F - 1.9 °F 38% 30.27 in 10.0 mi Calm Calm - N/A   Clear
8:35 PM 23.9 °F - 2.3 °F 39% 30.27 in 10.0 mi Calm Calm - N/A   Clear
8:55 PM 24.4 °F - 2.3 °F 39% 30.27 in 10.0 mi Calm Calm - N/A   Clear
9:15 PM 23.7 °F - 3.7 °F 42% 30.27 in 10.0 mi Calm Calm - N/A   Clear
9:35 PM 23.0 °F - 4.1 °F 44% 30.26 in 10.0 mi Calm Calm - N/A   Clear
9:55 PM 22.5 °F - 5.7 °F 49% 30.26 in 10.0 mi Calm Calm - N/A   Clear
10:15 PM 22.5 °F - 5.5 °F 48% 30.25 in 10.0 mi Calm Calm - N/A   Clear
10:35 PM 21.0 °F - 7.2 °F 55% 30.25 in 10.0 mi Calm Calm - N/A   Clear
10:55 PM 21.6 °F - 6.3 °F 52% 30.25 in 10.0 mi Calm Calm - N/A   Clear
11:15 PM 22.6 °F - 5.4 °F 48% 30.23 in 10.0 mi Calm Calm - N/A   Clear
11:35 PM 22.8 °F - 5.0 °F 47% 30.23 in 10.0 mi Calm Calm - N/A   Clear
11:55 PM 21.0 °F - 7.0 °F 55% 30.23 in 10.0 mi Calm Calm - N/A   Clear